Location: Caltech
(34.1382°N, 118.1253°W)
Time: 10:19:35
(UTC-07:00)

NOAA 19 - Visible Passes

Search period start: 03 July 2015 00:00
Search period end: 13 July 2015 00:00
Orbit: 842 x 863 km, 99.0° (Epoch: 02 July)

Date Brightness Start Highest point End Pass type
(mag) Time Alt. Az. Time Alt. Az. Time Alt. Az.
03 Jul 5.6 03:03:28 10° NNE 03:08:50 57° E 03:10:20 43° SSE visible
03 Jul 6.9 04:45:44 10° NNW 04:49:09 16° WNW 04:52:19 10° WSW visible
04 Jul 6.0 02:52:22 10° NNE 02:57:32 44° E 02:58:55 37° SE visible
04 Jul 6.7 04:33:56 10° NNW 04:38:00 21° WNW 04:40:58 13° WSW visible
05 Jul 6.3 02:41:20 10° NNE 02:46:13 34° E 02:47:29 31° SE visible
05 Jul 6.4 04:22:19 10° NNW 04:26:50 26° WNW 04:29:32 18° WSW visible
06 Jul 6.7 02:30:24 10° NE 02:34:53 26° E 02:36:04 25° ESE visible
06 Jul 6.1 04:10:47 10° N 04:15:39 33° WNW 04:18:06 23° WSW visible
07 Jul 7.0 02:19:37 10° NE 02:23:31 21° E 02:24:38 20° ESE visible
07 Jul 5.7 03:59:19 10° N 04:04:28 42° WNW 04:06:41 29° WSW visible
08 Jul 7.3 02:09:02 10° ENE 02:12:07 16° E 02:13:13 15° ESE visible
08 Jul 5.4 03:47:55 10° N 03:53:16 55° WNW 03:55:15 36° SW visible
09 Jul 7.6 01:58:58 10° ENE 02:00:42 12° E 02:01:46 11° ESE visible
09 Jul 5.2 03:36:36 10° N 03:42:02 70° WNW 03:43:49 43° SW visible
10 Jul 5.1 03:25:19 10° NNE 03:30:48 89° WNW 03:32:23 49° SSW visible
11 Jul 5.3 03:14:06 10° NNE 03:19:33 72° ESE 03:20:57 50° S visible
11 Jul 7.1 04:57:09 10° NW 04:59:45 13° WNW 05:02:03 10° W visible
12 Jul 5.6 03:02:55 10° NNE 03:08:17 55° E 03:09:31 46° SE visible
12 Jul 6.9 04:45:07 10° NNW 04:48:37 17° WNW 04:51:33 11° W visible
